When you browse on this site, cookies collect data to enhance your experience and personalize the content and advertising you see.
Visit our Privacy Policy to learn more. By continuing to use the site, you agree to this use of cookies and data.
  • In Hungary
  • List of Countries
  • For 7 days
  • Water Temperature
  • Satellite Maps
  • Weather Map
  • News
  • Weather Widgets
  • user-avatar
    Login

    Hourly Weather Gudkovo

    Today, 17 January, Thursday

    Time Temperature Precipitation Wind Pressure Humidity
    00:00 -9°C° 0 mm 3 mps 725 mmHg 91%
    01:00 -10°C° 0 mm 3 mps 725 mmHg 92%
    02:00 -10°C° 0 mm 2 mps 726 mmHg 94%
    03:00 -12°C° 0 mm 2 mps 725 mmHg 94%
    04:00 -13°C° 0 mm 3 mps 725 mmHg 94%
    05:00 -13°C° 0 mm 3 mps 725 mmHg 94%
    06:00 -13°C° 0 mm 3 mps 725 mmHg 93%
    07:00 -12°C° 0 mm 4 mps 724 mmHg 93%
    08:00 -12°C° 0 mm 4 mps 723 mmHg 92%
    09:00 -11°C° 0.3 mm 5 mps 723 mmHg 91%
    10:00 -10°C° 0.3 mm 6 mps 722 mmHg 90%
    11:00 -9°C° 0.3 mm 7 mps 722 mmHg 90%
    12:00 -7°C° 0.3 mm 7 mps 721 mmHg 88%
    13:00 -6°C° 0.3 mm 7 mps 721 mmHg 87%
    14:00 -4°C° 0.3 mm 7 mps 720 mmHg 86%
    15:00 -4°C° 0.2 mm 7 mps 720 mmHg 86%
    16:00 -3°C° 0.2 mm 6 mps 719 mmHg 86%
    17:00 -3°C° 0.2 mm 6 mps 719 mmHg 86%
    18:00 -3°C° 0.3 mm 6 mps 718 mmHg 86%
    19:00 -2°C° 0.3 mm 7 mps 718 mmHg 86%
    20:00 -2°C° 0.3 mm 7 mps 717 mmHg 86%
    21:00 -2°C° 0.1 mm 6 mps 718 mmHg 86%
    22:00 -2°C° 0.1 mm 6 mps 718 mmHg 86%
    23:00 -2°C° 0.1 mm 6 mps 718 mmHg 85%

    Tomorrow, 18 January, Friday

    Time Temperature Precipitation Wind Pressure Humidity
    00:00 -2°C° 0.1 mm 6 mps 719 mmHg 85%
    01:00 -2°C° 0.1 mm 6 mps 719 mmHg 85%
    02:00 -2°C° 0.1 mm 6 mps 720 mmHg 85%
    03:00 -2°C° 0.1 mm 6 mps 720 mmHg 85%
    04:00 -2°C° 0.1 mm 6 mps 721 mmHg 85%
    05:00 -1°C° 0.1 mm 5 mps 722 mmHg 85%
    06:00 -2°C° 0.1 mm 5 mps 722 mmHg 86%
    07:00 -2°C° 0.1 mm 5 mps 723 mmHg 88%
    08:00 -2°C° 0.1 mm 4 mps 723 mmHg 89%
    09:00 -3°C° 0.2 mm 4 mps 724 mmHg 89%
    10:00 -3°C° 0.2 mm 4 mps 724 mmHg 90%
    11:00 -2°C° 0.2 mm 3 mps 725 mmHg 90%
    12:00 -4°C° 0.1 mm 3 mps 725 mmHg 91%
    13:00 -3°C° 0.1 mm 2 mps 725 mmHg 92%
    14:00 -1°C° 0.1 mm 1 mps 725 mmHg 93%
    15:00 -1°C° 0.4 mm 1 mps 725 mmHg 94%
    16:00 -4°C° 0.4 mm 2 mps 724 mmHg 96%
    17:00 -4°C° 0.4 mm 2 mps 724 mmHg 97%
    18:00 -6°C° 1.8 mm 3 mps 724 mmHg 96%
    19:00 -7°C° 1.8 mm 3 mps 723 mmHg 96%
    20:00 -8°C° 1.8 mm 4 mps 723 mmHg 96%
    21:00 -9°C° 0.6 mm 4 mps 724 mmHg 95%
    22:00 -9°C° 0.6 mm 3 mps 724 mmHg 94%
    23:00 -9°C° 0.6 mm 3 mps 725 mmHg 92%

    Day after tomorrow, 19 January, Saturday

    Time Temperature Precipitation Wind Pressure Humidity
    00:00 -10°C° 0 mm 3 mps 726 mmHg 92%
    01:00 -12°C° 0 mm 3 mps 727 mmHg 92%
    02:00 -13°C° 0 mm 3 mps 728 mmHg 92%
    03:00 -12°C° 0 mm 3 mps 728 mmHg 92%
    04:00 -11°C° 0 mm 4 mps 729 mmHg 91%
    05:00 -11°C° 0 mm 4 mps 729 mmHg 91%
    06:00 -11°C° 0 mm 4 mps 729 mmHg 90%
    07:00 -11°C° 0 mm 4 mps 730 mmHg 90%
    08:00 -11°C° 0 mm 4 mps 730 mmHg 90%
    09:00 -10°C° 0 mm 4 mps 730 mmHg 90%
    10:00 -10°C° 0 mm 4 mps 731 mmHg 90%
    11:00 -10°C° 0 mm 4 mps 731 mmHg 90%
    12:00 -9°C° 0 mm 4 mps 731 mmHg 88%
    13:00 -10°C° 0 mm 5 mps 731 mmHg 87%
    14:00 -8°C° 0 mm 5 mps 731 mmHg 86%
    15:00 -8°C° 0.1 mm 4 mps 732 mmHg 87%
    16:00 -8°C° 0.1 mm 4 mps 732 mmHg 88%
    17:00 -9°C° 0.1 mm 4 mps 732 mmHg 89%
    18:00 -9°C° 0 mm 4 mps 732 mmHg 89%
    19:00 -9°C° 0 mm 4 mps 733 mmHg 89%
    20:00 -9°C° 0 mm 4 mps 733 mmHg 89%
    21:00 -9°C° 0 mm 4 mps 733 mmHg 89%
    22:00 -9°C° 0 mm 4 mps 734 mmHg 89%
    23:00 -8°C° 0 mm 4 mps 734 mmHg 88%

    20 January, Sunday

    Time Temperature Precipitation Wind Pressure Humidity
    00:00 -9°C° 0 mm 4 mps 734 mmHg 88%
    01:00 -9°C° 0 mm 4 mps 734 mmHg 88%
    02:00 -9°C° 0 mm 4 mps 734 mmHg 88%
    03:00 -9°C° 0 mm 4 mps 734 mmHg 89%
    04:00 -9°C° 0 mm 4 mps 734 mmHg 90%
    05:00 -10°C° 0 mm 4 mps 734 mmHg 91%
    06:00 -10°C° 0 mm 4 mps 734 mmHg 91%
    07:00 -10°C° 0 mm 4 mps 733 mmHg 91%
    08:00 -10°C° 0 mm 4 mps 733 mmHg 91%
    09:00 -10°C° 0.1 mm 5 mps 733 mmHg 89%
    10:00 -8°C° 0.1 mm 5 mps 733 mmHg 88%
    11:00 -7°C° 0.1 mm 5 mps 732 mmHg 86%
    12:00 -6°C° 0.1 mm 5 mps 732 mmHg 86%
    13:00 -6°C° 0.1 mm 6 mps 731 mmHg 87%
    14:00 -5°C° 0.1 mm 6 mps 731 mmHg 87%
    15:00 -6°C° 0.3 mm 5 mps 731 mmHg 88%
    16:00 -6°C° 0.3 mm 5 mps 731 mmHg 89%
    17:00 -6°C° 0.3 mm 5 mps 731 mmHg 90%
    18:00 -7°C° 0.3 mm 4 mps 731 mmHg 91%
    19:00 -7°C° 0.3 mm 3 mps 731 mmHg 92%
    20:00 -7°C° 0.3 mm 2 mps 731 mmHg 92%
    21:00 -8°C° 0 mm 2 mps 732 mmHg 93%
    22:00 -9°C° 0 mm 2 mps 732 mmHg 94%
    23:00 -9°C° 0 mm 2 mps 732 mmHg 95%

    21 January, Monday

    Time Temperature Precipitation Wind Pressure Humidity
    00:00 -10°C° 0 mm 2 mps 732 mmHg 95%
    01:00 -12°C° 0 mm 2 mps 732 mmHg 96%
    02:00 -13°C° 0 mm 2 mps 732 mmHg 97%
    03:00 -14°C° 0 mm 2 mps 732 mmHg 97%
    04:00 -12°C° 0 mm 1 mps 732 mmHg 97%
    05:00 -12°C° 0 mm 1 mps 732 mmHg 97%
    06:00 -11°C° 0.1 mm 1 mps 732 mmHg 97%
    07:00 -11°C° 0.1 mm 1 mps 732 mmHg 97%
    08:00 -10°C° 0.1 mm 1 mps 732 mmHg 97%
    09:00 -10°C° 0.1 mm 1 mps 732 mmHg 95%
    10:00 -12°C° 0.1 mm 2 mps 733 mmHg 94%
    11:00 -12°C° 0.1 mm 3 mps 733 mmHg 92%
    12:00 -12°C° 0 mm 3 mps 733 mmHg 91%
    13:00 -12°C° 0 mm 3 mps 733 mmHg 89%
    14:00 -13°C° 0 mm 3 mps 733 mmHg 88%
    15:00 -14°C° 0 mm 3 mps 733 mmHg 89%
    16:00 -14°C° 0 mm 3 mps 733 mmHg 90%
    17:00 -15°C° 0 mm 3 mps 734 mmHg 92%
    18:00 -15°C° 0 mm 2 mps 734 mmHg 93%
    19:00 -16°C° 0 mm 2 mps 734 mmHg 95%
    20:00 -17°C° 0 mm 2 mps 734 mmHg 96%
    21:00 -17°C° 0 mm 2 mps 734 mmHg 96%
    22:00 -17°C° 0 mm 2 mps 734 mmHg 96%
    23:00 -16°C° 0 mm 2 mps 734 mmHg 96%

    22 January, Tuesday

    Time Temperature Precipitation Wind Pressure Humidity
    00:00 -16°C° 0 mm 2 mps 734 mmHg 96%
    01:00 -15°C° 0 mm 2 mps 734 mmHg 95%
    02:00 -16°C° 0 mm 3 mps 734 mmHg 95%
    03:00 -15°C° 0 mm 2 mps 734 mmHg 95%
    04:00 -15°C° 0 mm 2 mps 734 mmHg 95%
    05:00 -15°C° 0 mm 2 mps 734 mmHg 96%
    06:00 -15°C° 0 mm 2 mps 734 mmHg 96%
    07:00 -16°C° 0 mm 2 mps 734 mmHg 96%
    08:00 -16°C° 0 mm 2 mps 734 mmHg 96%
    09:00 -15°C° 0 mm 2 mps 735 mmHg 95%
    10:00 -16°C° 0 mm 3 mps 735 mmHg 93%
    11:00 -15°C° 0 mm 3 mps 735 mmHg 92%
    12:00 -15°C° 0 mm 3 mps 735 mmHg 90%
    13:00 -14°C° 0 mm 3 mps 736 mmHg 89%
    14:00 -14°C° 0 mm 3 mps 736 mmHg 87%
    15:00 -15°C° 0 mm 3 mps 736 mmHg 89%
    16:00 -15°C° 0 mm 2 mps 736 mmHg 91%
    17:00 -16°C° 0 mm 2 mps 736 mmHg 93%
    18:00 -17°C° 0 mm 2 mps 737 mmHg 94%
    19:00 -18°C° 0 mm 2 mps 737 mmHg 95%
    20:00 -19°C° 0 mm 2 mps 737 mmHg 97%
    21:00 -20°C° 0 mm 2 mps 737 mmHg 97%
    22:00 -21°C° 0 mm 2 mps 737 mmHg 98%
    23:00 -20°C° 0 mm 1 mps 738 mmHg 99%
    Show more